Fort Stewart, GA

2:30 PM EST on December 06, 2016 (GMT -0500)
Wright Army Air Field

Weather History for KLHW - August, 2013

Change the Weather History Date:

Tuesday, August 27, 2013

  Actual Average Record
Temperature  
Mean Temperature 78 °F -  
Max Temperature 87 °F 89 °F 99 °F (1965)
Min Temperature 70 °F 71 °F 64 °F (2014)
Cooling Degree Days 14    
Growing Degree Days 28 (Base 50)    
Moisture  
Dew Point 73 °F    
Average Humidity 89    
Maximum Humidity 100    
Minimum Humidity 59    
Precipitation  
Precipitation 0.00 in - - ()
Sea Level Pressure  
Sea Level Pressure 30.08 in    
Wind  
Wind Speed 2 mph (NNE)    
Max Wind Speed 6 mph    
Max Gust Speed -    
Visibility 10 miles    
Events      
Averages and records for this station are not official NWS values.
T = Trace of Precipitation, MM = Missing Value Source: NWS Daily Summary

Daily Weather History Graph

Daily Weather History Graph

Search for Another Location

Airport or City:

Trip Planner

Search our weather history database for the weather conditions in past years. The results will help you decide how hot, cold, wet, or windy it might be!

Date:

Astronomy

Aug. 27, 2013 Rise Set
Actual Time 6:58 AM EDT 7:56 PM EDT
Civil Twilight 6:33 AM EDT 8:21 PM EDT
Nautical Twilight 6:03 AM EDT 8:50 PM EDT
Astronomical Twilight 5:33 AM EDT 9:21 PM EDT
Moon No Moon Rise 1:28 PM EDT (8/27)
Length of Visible Light 13h 47m
Length of Day
12h 57m
Waning Gibbous, 57% of the Moon is Illuminated
Aug 27
Waning Gibbous
Aug 28
Last Quarter
Sep 5
New
Sep 12
First Quarter
Sep 19
Full

Hourly Weather History & Observations

Time (EDT) Temp. Heat Index Dew Point Humidity Pressure Visibility Wind Dir Wind Speed Gust Speed Precip Events Conditions
12:01 AM 75.2 °F - 75.2 °F 100% 30.15 in 10.0 mi Calm Calm - N/A   Light Drizzle
12:16 AM 75.2 °F - 75.2 °F 100% 30.14 in 10.0 mi Calm Calm - N/A   Overcast
12:58 AM 74.1 °F - 74.1 °F 100% 30.14 in 10.0 mi Calm Calm - 0.00 in   Scattered Clouds
1:58 AM 72.3 °F - 72.3 °F 100% 30.13 in 10.0 mi North 1.2 mph - N/A   Partly Cloudy
2:58 AM 71.8 °F - 71.8 °F 100% 30.12 in 10.0 mi North 2.3 mph - N/A   Scattered Clouds
3:58 AM 71.1 °F - 71.1 °F 100% 30.10 in 10.0 mi NNW 3.5 mph - N/A   Clear
4:58 AM 71.1 °F - 71.1 °F 100% 30.10 in 10.0 mi WNW 2.3 mph - N/A   Scattered Clouds
5:58 AM 70.3 °F - 70.3 °F 100% 30.10 in 10.0 mi North 2.3 mph - N/A   Clear
6:58 AM 70.0 °F - 70.0 °F 100% 30.11 in 10.0 mi Calm Calm - N/A   Partly Cloudy
7:58 AM 71.8 °F - 71.8 °F 100% 30.11 in 10.0 mi North 1.2 mph - N/A   Scattered Clouds
8:58 AM 73.6 °F - 73.6 °F 100% 30.12 in 10.0 mi NE 2.3 mph - N/A   Overcast
9:58 AM 77.2 °F - 77.2 °F 100% 30.11 in 10.0 mi Variable 1.2 mph - N/A   Partly Cloudy
10:58 AM 81.1 °F 85.4 °F 71.8 °F 73% 30.11 in 10.0 mi Variable 1.2 mph - N/A   Mostly Cloudy
11:58 AM 83.7 °F 90.7 °F 74.1 °F 73% 30.11 in 10.0 mi ENE 4.6 mph - N/A   Clear
12:58 PM 84.6 °F 90.0 °F 71.6 °F 65% 30.08 in 10.0 mi Variable 3.5 mph - N/A   Scattered Clouds
1:58 PM 86.4 °F 93.0 °F 72.3 °F 63% 30.07 in 10.0 mi North 3.5 mph - N/A   Mostly Cloudy
2:58 PM 85.3 °F 91.5 °F 72.5 °F 65% 30.05 in 10.0 mi Variable 4.6 mph - N/A   Mostly Cloudy
3:58 PM 86.0 °F 90.7 °F 70.3 °F 59% 30.03 in 10.0 mi Variable 2.3 mph - N/A   Mostly Cloudy
4:58 PM 87.1 °F 93.6 °F 72.0 °F 61% 30.03 in 10.0 mi Variable 4.6 mph - N/A   Mostly Cloudy
5:58 PM 82.4 °F 89.0 °F 74.7 °F 77% 30.03 in 10.0 mi SE 5.8 mph - N/A   Overcast
6:58 PM 81.0 °F 85.8 °F 73.2 °F 77% 30.04 in 10.0 mi SE 5.8 mph - N/A   Mostly Cloudy
7:58 PM 77.7 °F - 72.9 °F 85% 30.04 in 10.0 mi ESE 3.5 mph - N/A   Clear
8:58 PM 75.4 °F - 73.2 °F 93% 30.05 in 10.0 mi Calm Calm - N/A   Clear
9:58 PM 73.0 °F - 73.0 °F 100% 30.06 in 10.0 mi Calm Calm - N/A   Clear
10:58 PM 72.1 °F - 72.1 °F 100% 30.07 in 10.0 mi Calm Calm - N/A   Clear
11:23 PM 71.6 °F - 71.6 °F 100% 30.05 in 9.0 mi Calm Calm - N/A   Clear
11:43 PM 71.6 °F - 71.6 °F 100% 30.05 in 10.0 mi Calm Calm - N/A   Clear
11:58 PM 70.5 °F - 70.5 °F 100% 30.06 in 10.0 mi Calm Calm - N/A   Clear